FW1313 Weather Reports


Display with metric or nautical units.
time (UTC)temp
F
wind
direction
speed
MPH
gust
MPH
rain 1hr
in
rain 24hr
in
rain mn
in
humidity
%
barometer
mb
20260905023411 56 159 0.0 0.0 0.00 0.00 0.00 69 1016.5
20260905020408 59 174 0.0 0.0 0.00 0.00 0.00 63 1016.6
20260905013408 61 183 0.0 0.0 0.00 0.00 0.00 56 1016.6
20260905010408 63 226 0.0 0.0 0.00 0.00 0.00 52 1016.7
20260905003408 64 225 0.0 0.0 0.00 0.00 0.00 46 1016.7
20260905000410 65 172 0.0 1.0 0.00 0.00 0.00 40 1016.6
20260904233408 66 176 0.0 1.0 0.00 0.00 0.00 37 1016.4
20260904230408 67 201 0.0 1.0 0.00 0.00 0.00 35 1016.1
20260904223408 67 209 0.0 0.0 0.00 0.00 0.00 36 1015.9
20260904220408 67 206 0.0 0.0 0.00 0.00 0.00 34 1015.7
20260904213408 68 217 0.0 0.0 0.00 0.00 0.00 32 1015.3
20260904210408 69 165 0.0 0.0 0.00 0.00 0.00 32 1014.9
20260904203408 72 222 0.0 0.0 0.00 0.00 0.00 30 1014.5
20260904200411 72 166 0.0 0.0 0.00 0.00 0.00 30 1014.2
20260904193408 70 156 0.0 0.0 0.00 0.00 0.00 34 1014.1
20260904190408 71 232 0.0 1.0 0.00 0.00 0.00 34 1014.2
20260904183408 68 125 0.0 0.0 0.00 0.00 0.00 34 1014.0
20260904180411 67 89 0.0 0.0 0.00 0.00 0.00 32 1013.7
20260904173408 68 125 0.0 0.0 0.00 0.00 0.00 32 1013.4
20260904170408 65 114 0.0 0.0 0.00 0.00 0.00 36 1013.0
20260904163408 61 181 0.0 1.0 0.00 0.00 0.00 40 1012.4
20260904160411 60 138 0.0 0.0 0.00 0.00 0.00 42 1012.2
20260904153408 58 112 0.0 0.0 0.00 0.00 0.00 43 1012.0
20260904150408 57 106 0.0 0.0 0.00 0.00 0.00 42 1011.8
20260904143408 56 87 0.0 0.0 0.00 0.00 0.00 41 1011.6
20260904140411 56 98 0.0 0.0 0.00 0.00 0.00 40 1011.3
20260904133408 55 93 0.0 0.0 0.00 0.00 0.00 32 1011.1
20260904130408 55 85 0.0 0.0 0.00 0.00 0.00 30 1011.0
20260904123408 54 89 0.0 0.0 0.00 0.00 0.00 45 1010.8
20260904120408 54 96 0.0 0.0 0.00 0.00 0.00 44 1010.8
20260904113408 53 102 0.0 0.0 0.00 0.00 0.00 46 1010.9
20260904110411 53 96 0.0 0.0 0.00 0.00 0.00 56 1011.1
20260904103408 52 106 0.0 0.0 0.00 0.00 0.00 73 1011.4
20260904100408 52 108 0.0 0.0 0.00 0.00 0.00 80 1011.5
20260904093408 52 132 0.0 0.0 0.00 0.00 0.00 77 1011.8
20260904090411 53 114 0.0 0.0 0.00 0.00 0.00 73 1012.2
20260904083408 54 131 0.0 1.0 0.00 0.00 0.00 78 1012.7
20260904080408 55 111 0.0 1.0 0.00 0.00 0.00 72 1013.2
20260904073411 54 108 0.0 0.0 0.00 0.00 0.00 76 1013.5
20260904070411 55 115 0.0 0.0 0.00 0.00 0.00 74 1013.9
20260904063408 55 114 0.0 0.0 0.00 0.00 0.00 70 1014.2
20260904060411 56 132 0.0 0.0 0.00 0.00 0.00 70 1014.6
20260904053408 57 127 0.0 0.0 0.00 0.00 0.00 64 1014.9
20260904050408 57 122 0.0 0.0 0.00 0.00 0.00 58 1015.1
20260904043408 55 97 0.0 0.0 0.00 0.00 0.00 75 1015.2
20260904040408 58 103 0.0 0.0 0.00 0.00 0.00 60 1015.0
20260904033408 57 91 0.0 0.0 0.00 0.00 0.00 62 1014.9
20260904030411 55 271 0.0 1.0 0.00 0.00 0.00 80 1014.8